• In Czech Republic
  • List of Countries
  • For 7 days
  • Water Temperature
  • Satellite Maps
  • Weather Map
  • Weather Widgets
  • user-avatar
    Login

    Hourly Weather Kazminka

    Today, 24 September, Monday

    Time Temperature Precipitation Wind Pressure Humidity
    00:00 +7°C° 0 mm 3 mps 740 mmHg 89%
    01:00 +7°C° 0 mm 3 mps 740 mmHg 90%
    02:00 +6°C° 0 mm 2 mps 740 mmHg 93%
    03:00 +7°C° 0 mm 3 mps 740 mmHg 92%
    04:00 +7°C° 0 mm 3 mps 740 mmHg 90%
    05:00 +7°C° 0 mm 3 mps 739 mmHg 88%
    06:00 +8°C° 0 mm 3 mps 739 mmHg 84%
    07:00 +8°C° 0 mm 4 mps 739 mmHg 80%
    08:00 +10°C° 0 mm 4 mps 739 mmHg 75%
    09:00 +9°C° 0.3 mm 5 mps 738 mmHg 76%
    10:00 +9°C° 0.3 mm 6 mps 738 mmHg 76%
    11:00 +9°C° 0.3 mm 7 mps 737 mmHg 76%
    12:00 +9°C° 0.8 mm 7 mps 736 mmHg 78%
    13:00 +9°C° 0.8 mm 8 mps 735 mmHg 80%
    14:00 +9°C° 0.8 mm 8 mps 734 mmHg 82%
    15:00 +9°C° 1.2 mm 8 mps 733 mmHg 84%
    16:00 +8°C° 1.2 mm 9 mps 732 mmHg 85%
    17:00 +10°C° 1.2 mm 9 mps 731 mmHg 87%
    18:00 +10°C° 0.6 mm 8 mps 731 mmHg 87%
    19:00 +10°C° 0.6 mm 8 mps 730 mmHg 87%
    20:00 +10°C° 0.6 mm 8 mps 730 mmHg 88%
    21:00 +9°C° 0.1 mm 7 mps 730 mmHg 87%
    22:00 +8°C° 0.1 mm 7 mps 730 mmHg 86%
    23:00 +7°C° 0.1 mm 6 mps 730 mmHg 86%

    Tomorrow, 25 September, Tuesday

    Time Temperature Precipitation Wind Pressure Humidity
    00:00 +6°C° 0 mm 7 mps 731 mmHg 85%
    01:00 +6°C° 0 mm 7 mps 731 mmHg 85%
    02:00 +6°C° 0 mm 7 mps 731 mmHg 85%
    03:00 +6°C° 0 mm 7 mps 732 mmHg 85%
    04:00 +7°C° 0 mm 6 mps 732 mmHg 85%
    05:00 +7°C° 0 mm 6 mps 732 mmHg 84%
    06:00 +7°C° 0 mm 6 mps 733 mmHg 83%
    07:00 +7°C° 0 mm 6 mps 733 mmHg 83%
    08:00 +6°C° 0 mm 7 mps 734 mmHg 82%
    09:00 +6°C° 0.1 mm 7 mps 734 mmHg 80%
    10:00 +6°C° 0.1 mm 7 mps 735 mmHg 78%
    11:00 +6°C° 0.1 mm 7 mps 736 mmHg 76%
    12:00 +6°C° 0.1 mm 7 mps 736 mmHg 75%
    13:00 +6°C° 0.1 mm 7 mps 737 mmHg 74%
    14:00 +6°C° 0.1 mm 7 mps 738 mmHg 74%
    15:00 +7°C° 0 mm 6 mps 738 mmHg 74%
    16:00 +7°C° 0 mm 6 mps 739 mmHg 74%
    17:00 +7°C° 0 mm 5 mps 739 mmHg 74%
    18:00 +6°C° 0 mm 5 mps 740 mmHg 75%
    19:00 +6°C° 0 mm 5 mps 741 mmHg 76%
    20:00 +6°C° 0 mm 4 mps 741 mmHg 76%
    21:00 +6°C° 0 mm 4 mps 742 mmHg 78%
    22:00 +5°C° 0 mm 4 mps 742 mmHg 80%
    23:00 +4°C° 0 mm 4 mps 743 mmHg 82%

    Day after tomorrow, 26 September, Wednesday

    Time Temperature Precipitation Wind Pressure Humidity
    00:00 +4°C° 0 mm 4 mps 743 mmHg 83%
    01:00 +4°C° 0 mm 4 mps 744 mmHg 84%
    02:00 +3°C° 0 mm 4 mps 744 mmHg 85%
    03:00 +3°C° 0 mm 4 mps 745 mmHg 85%
    04:00 +3°C° 0 mm 4 mps 745 mmHg 86%
    05:00 +3°C° 0 mm 4 mps 746 mmHg 86%
    06:00 +3°C° 0 mm 4 mps 747 mmHg 82%
    07:00 +3°C° 0 mm 5 mps 747 mmHg 77%
    08:00 +3°C° 0 mm 5 mps 748 mmHg 73%
    09:00 +5°C° 0 mm 5 mps 748 mmHg 66%
    10:00 +6°C° 0 mm 5 mps 748 mmHg 60%
    11:00 +7°C° 0 mm 5 mps 749 mmHg 53%
    12:00 +8°C° 0 mm 5 mps 749 mmHg 51%
    13:00 +8°C° 0 mm 5 mps 749 mmHg 49%
    14:00 +8°C° 0 mm 5 mps 748 mmHg 47%
    15:00 +8°C° 0 mm 4 mps 748 mmHg 52%
    16:00 +8°C° 0 mm 3 mps 748 mmHg 57%
    17:00 +7°C° 0 mm 2 mps 748 mmHg 61%
    18:00 +5°C° 0 mm 3 mps 748 mmHg 64%
    19:00 +5°C° 0 mm 4 mps 748 mmHg 66%
    20:00 +4°C° 0 mm 4 mps 748 mmHg 69%
    21:00 +5°C° 0 mm 5 mps 747 mmHg 69%
    22:00 +5°C° 0 mm 5 mps 746 mmHg 69%
    23:00 +4°C° 0 mm 6 mps 746 mmHg 70%

    27 September, Thursday

    Time Temperature Precipitation Wind Pressure Humidity
    00:00 +4°C° 0.2 mm 6 mps 745 mmHg 70%
    01:00 +4°C° 0.2 mm 7 mps 744 mmHg 71%
    02:00 +4°C° 0.2 mm 7 mps 744 mmHg 72%
    03:00 +4°C° 0.6 mm 8 mps 743 mmHg 75%
    04:00 +4°C° 0.6 mm 8 mps 742 mmHg 78%
    05:00 +3°C° 0.6 mm 9 mps 741 mmHg 81%
    06:00 +3°C° 0.7 mm 9 mps 740 mmHg 83%
    07:00 +5°C° 0.7 mm 9 mps 740 mmHg 85%
    08:00 +5°C° 0.7 mm 8 mps 740 mmHg 86%
    09:00 +5°C° 0.2 mm 8 mps 739 mmHg 86%
    10:00 +6°C° 0.2 mm 8 mps 739 mmHg 87%
    11:00 +6°C° 0.2 mm 8 mps 739 mmHg 87%
    12:00 +6°C° 0.1 mm 8 mps 739 mmHg 87%
    13:00 +7°C° 0.1 mm 8 mps 739 mmHg 87%
    14:00 +8°C° 0.1 mm 7 mps 739 mmHg 88%
    15:00 +8°C° 0.2 mm 7 mps 738 mmHg 89%
    16:00 +8°C° 0.2 mm 7 mps 738 mmHg 90%
    17:00 +8°C° 0.2 mm 6 mps 738 mmHg 91%
    18:00 +8°C° 0.9 mm 6 mps 738 mmHg 92%
    19:00 +9°C° 0.9 mm 5 mps 738 mmHg 93%
    20:00 +10°C° 0.9 mm 4 mps 739 mmHg 94%
    21:00 +10°C° 0.1 mm 4 mps 739 mmHg 94%
    22:00 +10°C° 0.1 mm 3 mps 739 mmHg 94%
    23:00 +9°C° 0.1 mm 3 mps 739 mmHg 95%

    28 September, Friday

    Time Temperature Precipitation Wind Pressure Humidity
    00:00 +9°C° 0.2 mm 3 mps 738 mmHg 94%
    01:00 +9°C° 0.2 mm 2 mps 738 mmHg 93%
    02:00 +9°C° 0.2 mm 2 mps 738 mmHg 93%
    03:00 +10°C° 0 mm 3 mps 738 mmHg 92%
    04:00 +10°C° 0 mm 4 mps 738 mmHg 92%
    05:00 +10°C° 0 mm 4 mps 738 mmHg 92%
    06:00 +10°C° 0 mm 5 mps 737 mmHg 90%
    07:00 +10°C° 0 mm 6 mps 737 mmHg 89%
    08:00 +11°C° 0 mm 7 mps 737 mmHg 87%
    09:00 +11°C° 0.1 mm 8 mps 736 mmHg 86%
    10:00 +11°C° 0.1 mm 8 mps 736 mmHg 85%
    11:00 +12°C° 0.1 mm 9 mps 736 mmHg 84%
    12:00 +12°C° 0.1 mm 9 mps 736 mmHg 83%
    13:00 +12°C° 0.1 mm 8 mps 736 mmHg 82%
    14:00 +13°C° 0.1 mm 8 mps 736 mmHg 81%
    15:00 +12°C° 0.5 mm 7 mps 737 mmHg 83%
    16:00 +11°C° 0.5 mm 6 mps 737 mmHg 86%
    17:00 +10°C° 0.5 mm 5 mps 737 mmHg 88%
    18:00 +11°C° 0.4 mm 4 mps 738 mmHg 89%
    19:00 +10°C° 0.4 mm 3 mps 738 mmHg 90%
    20:00 +9°C° 0.4 mm 2 mps 739 mmHg 91%
    21:00 +8°C° 0 mm 2 mps 739 mmHg 92%
    22:00 +7°C° 0 mm 2 mps 739 mmHg 92%
    23:00 +8°C° 0 mm 1 mps 740 mmHg 93%

    29 September, Saturday

    Time Temperature Precipitation Wind Pressure Humidity
    00:00 +7°C° 0 mm 1 mps 740 mmHg 93%
    01:00 +7°C° 0 mm 1 mps 740 mmHg 94%
    02:00 +6°C° 0 mm 1 mps 741 mmHg 94%
    03:00 +6°C° 0 mm 1 mps 741 mmHg 94%
    04:00 +6°C° 0 mm 1 mps 741 mmHg 94%
    05:00 +6°C° 0 mm 1 mps 741 mmHg 93%
    06:00 +7°C° 0 mm 1 mps 741 mmHg 91%
    07:00 +7°C° 0 mm 2 mps 741 mmHg 88%
    08:00 +8°C° 0 mm 2 mps 741 mmHg 85%
    09:00 +9°C° 0 mm 2 mps 741 mmHg 81%
    10:00 +10°C° 0 mm 2 mps 742 mmHg 78%
    11:00 +12°C° 0 mm 2 mps 742 mmHg 74%
    12:00 +12°C° 0.3 mm 2 mps 742 mmHg 74%
    13:00 +12°C° 0.3 mm 1 mps 741 mmHg 74%
    14:00 +12°C° 0.3 mm 1 mps 741 mmHg 74%
    15:00 +10°C° 0.3 mm 2 mps 742 mmHg 78%
    16:00 +10°C° 0.3 mm 2 mps 742 mmHg 82%
    17:00 +9°C° 0.3 mm 3 mps 742 mmHg 86%
    18:00 +8°C° 0 mm 3 mps 743 mmHg 87%
    19:00 +6°C° 0 mm 4 mps 743 mmHg 88%
    20:00 +5°C° 0 mm 5 mps 744 mmHg 89%
    21:00 +3°C° 0 mm 5 mps 745 mmHg 89%
    22:00 +3°C° 0 mm 5 mps 745 mmHg 88%
    23:00 +2°C° 0 mm 5 mps 745 mmHg 87%
    Show more